TimeCDT,TemperatureF,Dew PointF,Humidity,Sea Level PressureIn,VisibilityMPH,Wind Direction,Wind SpeedMPH,Gust SpeedMPH,PrecipitationIn,Events,Conditions,WindDirDegrees,DateUTC
12:58 AM,75.9,72.9,90,29.88,10.0,ESE,3.5,-,N/A,,Partly Cloudy,120,2013-09-20 05:58:00
1:58 AM,75.0,72.9,93,29.85,10.0,ENE,1.2,-,N/A,,Partly Cloudy,70,2013-09-20 06:58:00
2:18 AM,75.2,73.4,94,29.86,10.0,East,2.3,-,N/A,,Mostly Cloudy,100,2013-09-20 07:18:00
2:28 AM,75.2,73.4,94,29.86,10.0,ESE,1.2,-,N/A,,Scattered Clouds,110,2013-09-20 07:28:00
2:58 AM,75.2,73.4,94,29.83,10.0,East,2.3,-,N/A,,Mostly Cloudy,90,2013-09-20 07:58:00
3:13 AM,75.2,73.4,94,29.85,10.0,East,3.5,-,N/A,,Mostly Cloudy,90,2013-09-20 08:13:00
3:18 AM,75.2,73.4,94,29.85,10.0,East,3.5,-,N/A,,Overcast,100,2013-09-20 08:18:00
3:58 AM,75.9,73.8,93,29.82,10.0,ESE,2.3,-,N/A,,Overcast,110,2013-09-20 08:58:00
4:19 AM,75.2,73.4,94,29.84,10.0,East,3.5,-,N/A,,Overcast,90,2013-09-20 09:19:00
4:53 AM,75.2,73.4,94,29.83,9.0,NE,2.3,-,N/A,,Drizzle,50,2013-09-20 09:53:00
4:58 AM,75.2,73.4,94,29.81,8.0,ENE,3.5,-,0.00,,Light Drizzle,70,2013-09-20 09:58:00
5:03 AM,75.2,73.4,94,29.83,5.0,East,3.5,-,N/A,Rain,Rain,80,2013-09-20 10:03:00
5:08 AM,75.2,73.4,94,29.82,2.5,ENE,2.3,-,N/A,Rain,Rain,70,2013-09-20 10:08:00
5:10 AM,75.2,73.4,94,29.83,1.8,East,3.5,-,N/A,Rain,Heavy Rain,100,2013-09-20 10:10:00
5:15 AM,75.2,73.4,94,29.82,1.2,East,5.8,-,N/A,Rain,Heavy Rain,80,2013-09-20 10:15:00
5:20 AM,75.2,73.4,94,29.82,1.5,East,5.8,-,N/A,Rain,Rain,80,2013-09-20 10:20:00
5:21 AM,75.2,73.4,94,29.83,1.8,ENE,5.8,-,N/A,Rain,Rain,70,2013-09-20 10:21:00
5:26 AM,75.2,73.4,94,29.82,5.0,East,5.8,-,N/A,Rain,Light Rain,80,2013-09-20 10:26:00
5:30 AM,75.2,73.4,94,29.82,10.0,East,4.6,-,N/A,,Overcast,80,2013-09-20 10:30:00
5:35 AM,75.2,73.4,94,29.83,10.0,ESE,3.5,-,N/A,,Overcast,110,2013-09-20 10:35:00
5:45 AM,75.2,73.4,94,29.82,10.0,Variable,6.9,-,N/A,,Overcast,0,2013-09-20 10:45:00
5:58 AM,75.7,73.9,94,29.80,10.0,SE,3.5,-,0.13,,Overcast,130,2013-09-20 10:58:00
6:13 AM,75.2,73.4,94,29.82,10.0,ESE,3.5,-,N/A,,Scattered Clouds,120,2013-09-20 11:13:00
6:22 AM,75.2,73.4,94,29.82,6.0,SE,4.6,-,N/A,Rain,Light Rain,140,2013-09-20 11:22:00
6:27 AM,75.2,73.4,94,29.82,5.0,SE,4.6,-,N/A,Rain,Rain,130,2013-09-20 11:27:00
6:32 AM,75.2,73.4,94,29.81,7.0,ESE,4.6,-,N/A,Rain,Light Rain,120,2013-09-20 11:32:00
6:34 AM,75.2,73.4,94,29.81,10.0,ESE,5.8,-,N/A,,Partly Cloudy,120,2013-09-20 11:34:00
6:44 AM,75.2,73.4,94,29.81,10.0,ESE,3.5,-,N/A,,Mostly Cloudy,110,2013-09-20 11:44:00
6:49 AM,75.2,73.4,94,29.81,10.0,ESE,4.6,-,N/A,,Mostly Cloudy,110,2013-09-20 11:49:00
6:52 AM,75.2,75.2,100,29.81,9.0,ESE,5.8,-,N/A,,Mostly Cloudy,120,2013-09-20 11:52:00
6:58 AM,75.9,74.5,95,29.79,7.0,ESE,6.9,-,0.01,,Overcast,120,2013-09-20 11:58:00
7:07 AM,75.2,73.4,94,29.82,5.0,SE,8.1,-,N/A,Rain,Light Rain,140,2013-09-20 12:07:00
7:12 AM,75.2,73.4,94,29.81,3.0,SSE,8.1,-,N/A,Rain,Light Rain,150,2013-09-20 12:12:00
7:19 AM,75.2,73.4,94,29.82,3.0,SE,5.8,-,N/A,Rain,Light Rain,140,2013-09-20 12:19:00
7:27 AM,75.2,73.4,94,29.82,5.0,SE,5.8,-,N/A,,Overcast,130,2013-09-20 12:27:00
7:42 AM,75.2,73.4,94,29.82,10.0,SE,3.5,-,N/A,,Mostly Cloudy,140,2013-09-20 12:42:00
7:58 AM,75.6,73.8,94,29.81,10.0,SSE,4.6,-,0.03,,Overcast,160,2013-09-20 12:58:00
8:05 AM,75.2,73.4,94,29.83,5.0,South,4.6,-,N/A,,Light Drizzle,170,2013-09-20 13:05:00
8:15 AM,75.2,73.4,94,29.83,6.0,SSE,4.6,-,N/A,,Overcast,160,2013-09-20 13:15:00
8:26 AM,77.0,73.4,89,29.84,7.0,South,5.8,-,N/A,,Overcast,170,2013-09-20 13:26:00
8:31 AM,77.0,73.4,89,29.84,7.0,South,4.6,-,N/A,,Overcast,180,2013-09-20 13:31:00
8:36 AM,77.0,75.2,94,29.84,10.0,South,3.5,-,N/A,,Overcast,190,2013-09-20 13:36:00
8:41 AM,77.0,75.2,94,29.84,10.0,SSE,4.6,-,N/A,,Overcast,150,2013-09-20 13:41:00
8:45 AM,77.0,75.2,94,29.84,10.0,SE,5.8,-,N/A,,Overcast,140,2013-09-20 13:45:00
8:58 AM,76.6,74.8,94,29.81,10.0,SSE,3.5,-,0.00,,Overcast,150,2013-09-20 13:58:00
9:21 AM,77.0,75.2,94,29.83,10.0,SSE,8.1,-,N/A,,Overcast,150,2013-09-20 14:21:00
9:38 AM,78.8,75.2,89,29.84,10.0,SSE,6.9,-,N/A,,Overcast,160,2013-09-20 14:38:00
9:58 AM,78.8,75.2,89,29.81,10.0,South,5.8,-,0.01,,Mostly Cloudy,170,2013-09-20 14:58:00
10:14 AM,78.8,75.2,89,29.83,10.0,SSE,6.9,-,N/A,,Mostly Cloudy,160,2013-09-20 15:14:00
10:47 AM,78.8,75.2,89,29.83,10.0,SSE,8.1,-,N/A,,Light Drizzle,160,2013-09-20 15:47:00
10:56 AM,78.8,75.2,89,29.83,10.0,SSE,10.4,-,N/A,,Mostly Cloudy,150,2013-09-20 15:56:00
10:58 AM,78.8,75.2,89,29.81,10.0,SSE,9.2,-,0.00,,Mostly Cloudy,150,2013-09-20 15:58:00
11:15 AM,78.8,75.2,89,29.83,3.0,SSE,9.2,-,N/A,Rain,Light Rain,150,2013-09-20 16:15:00
11:22 AM,78.8,75.2,89,29.83,1.5,SE,13.8,-,N/A,Rain,Light Rain,140,2013-09-20 16:22:00
11:29 AM,77.0,75.2,94,29.83,1.8,SSE,13.8,-,N/A,Rain,Light Rain,150,2013-09-20 16:29:00
11:41 AM,77.0,75.2,94,29.83,2.5,SSE,6.9,-,N/A,Rain,Light Rain,150,2013-09-20 16:41:00
11:46 AM,77.0,75.2,94,29.83,8.0,South,8.1,-,N/A,Rain,Light Rain,170,2013-09-20 16:46:00
11:47 AM,77.0,75.2,94,29.83,9.0,SSE,8.1,-,N/A,,Mostly Cloudy,160,2013-09-20 16:47:00
11:57 AM,77.0,75.2,94,29.83,10.0,SSE,3.5,-,N/A,,Mostly Cloudy,160,2013-09-20 16:57:00
11:58 AM,77.0,75.2,94,29.81,10.0,South,3.5,-,0.04,,Mostly Cloudy,170,2013-09-20 16:58:00
12:08 PM,77.0,75.2,94,29.83,10.0,South,4.6,-,N/A,,Mostly Cloudy,170,2013-09-20 17:08:00
12:13 PM,77.0,75.2,94,29.82,10.0,South,4.6,-,N/A,,Mostly Cloudy,170,2013-09-20 17:13:00
12:28 PM,77.0,75.2,94,29.82,10.0,Variable,2.3,-,N/A,,Overcast,0,2013-09-20 17:28:00
12:58 PM,79.2,75.2,88,29.79,10.0,SSW,2.3,-,0.01,,Overcast,210,2013-09-20 17:58:00
1:08 PM,78.8,75.2,89,29.81,10.0,Variable,3.5,-,N/A,,Overcast,0,2013-09-20 18:08:00
1:28 PM,80.6,75.2,84,29.80,10.0,Variable,1.2,-,N/A,,Overcast,0,2013-09-20 18:28:00
1:29 PM,80.6,75.2,84,29.80,10.0,West,3.5,-,N/A,,Light Drizzle,280,2013-09-20 18:29:00
1:34 PM,80.6,75.2,84,29.80,5.0,West,8.1,-,N/A,,Light Drizzle,270,2013-09-20 18:34:00
1:49 PM,80.6,75.2,84,29.79,10.0,WSW,4.6,-,N/A,,Overcast,240,2013-09-20 18:49:00
1:58 PM,80.4,75.2,84,29.77,10.0,West,4.6,-,0.00,,Overcast,270,2013-09-20 18:58:00
2:08 PM,80.6,73.4,79,29.78,10.0,West,4.6,-,N/A,Thunderstorm,Overcast,260,2013-09-20 19:08:00
2:31 PM,80.6,73.4,79,29.78,4.0,WNW,11.5,-,N/A,Rain-Thunderstorm,Thunderstorms and Rain,290,2013-09-20 19:31:00
2:36 PM,78.8,75.2,89,29.78,1.8,WNW,15.0,-,N/A,Rain-Thunderstorm,Heavy Thunderstorms and Rain,300,2013-09-20 19:36:00
2:39 PM,78.8,75.2,89,29.78,3.0,WNW,16.1,-,N/A,Rain-Thunderstorm,Light Thunderstorms and Rain,300,2013-09-20 19:39:00
2:54 PM,77.0,73.4,89,29.78,10.0,NNW,12.7,-,N/A,Thunderstorm,Thunderstorm,340,2013-09-20 19:54:00
2:58 PM,77.4,74.1,90,29.76,10.0,NNW,10.4,-,0.03,Thunderstorm,Thunderstorm,330,2013-09-20 19:58:00
3:08 PM,77.0,73.4,89,29.78,10.0,NNW,12.7,-,N/A,Thunderstorm,Overcast,340,2013-09-20 20:08:00
3:28 PM,77.0,73.4,89,29.77,10.0,NNW,12.7,19.6,N/A,Thunderstorm,Thunderstorm,340,2013-09-20 20:28:00
3:38 PM,77.0,73.4,89,29.79,10.0,NNW,11.5,-,N/A,Rain-Thunderstorm,Light Thunderstorms and Rain,330,2013-09-20 20:38:00
3:43 PM,77.0,73.4,89,29.79,2.0,North,10.4,-,N/A,Rain-Thunderstorm,Thunderstorms and Rain,350,2013-09-20 20:43:00
3:58 PM,75.2,71.8,89,29.76,5.0,NNW,12.7,-,0.02,Rain-Thunderstorm,Thunderstorms and Rain,340,2013-09-20 20:58:00
4:03 PM,75.2,71.6,89,29.78,7.0,North,13.8,-,N/A,Rain-Thunderstorm,Light Thunderstorms and Rain,350,2013-09-20 21:03:00
4:08 PM,75.2,71.6,89,29.78,8.0,North,18.4,23.0,N/A,Rain-Thunderstorm,Light Thunderstorms and Rain,350,2013-09-20 21:08:00
4:24 PM,75.2,71.6,89,29.78,8.0,North,18.4,23.0,N/A,Rain-Thunderstorm,Light Rain,350,2013-09-20 21:24:00
4:43 PM,75.2,71.6,89,29.78,10.0,North,13.8,24.2,N/A,Rain-Thunderstorm,Light Rain,360,2013-09-20 21:43:00
4:58 PM,74.8,71.2,88,29.77,10.0,North,13.8,19.6,0.02,Rain-Thunderstorm,Light Rain,360,2013-09-20 21:58:00
5:05 PM,75.2,71.6,89,29.77,10.0,North,16.1,23.0,N/A,Thunderstorm,Mostly Cloudy,360,2013-09-20 22:05:00
5:09 PM,75.2,71.6,89,29.77,10.0,North,13.8,23.0,N/A,Rain-Thunderstorm,Light Rain,360,2013-09-20 22:09:00
5:58 PM,74.5,70.7,88,29.77,10.0,North,9.2,-,0.00,,Scattered Clouds,10,2013-09-20 22:58:00
6:40 PM,73.4,69.8,88,29.80,10.0,NNE,16.1,-,N/A,,Mostly Cloudy,20,2013-09-20 23:40:00
6:58 PM,73.9,69.1,85,29.79,10.0,NNE,17.3,23.0,N/A,,Mostly Cloudy,20,2013-09-20 23:58:00
7:03 PM,73.4,68.0,83,29.81,10.0,NNE,15.0,21.9,N/A,,Scattered Clouds,30,2013-09-21 00:03:00
7:58 PM,73.0,68.0,84,29.81,10.0,NNE,13.8,20.7,N/A,,Scattered Clouds,20,2013-09-21 00:58:00
8:08 PM,73.4,68.0,83,29.83,10.0,North,10.4,18.4,N/A,,Light Drizzle,10,2013-09-21 01:08:00
8:58 PM,71.6,68.0,88,29.80,10.0,NNE,11.5,19.6,0.01,Rain,Light Rain,30,2013-09-21 01:58:00
9:13 PM,71.6,68.0,88,29.83,10.0,NNE,10.4,-,N/A,,Clear,20,2013-09-21 02:13:00
9:39 PM,71.6,68.0,88,29.84,10.0,NNE,12.7,17.3,N/A,Rain,Light Rain,20,2013-09-21 02:39:00
9:58 PM,71.6,68.0,88,29.83,10.0,NNE,9.2,-,0.01,Rain,Light Rain,30,2013-09-21 02:58:00
10:05 PM,71.6,68.0,88,29.85,10.0,NNE,11.5,-,N/A,,Clear,20,2013-09-21 03:05:00
10:58 PM,71.2,67.5,88,29.83,10.0,North,10.4,-,0.00,,Partly Cloudy,10,2013-09-21 03:58:00
11:58 PM,71.6,67.1,86,29.83,10.0,NNE,12.7,20.7,N/A,,Clear,20,2013-09-21 04:58:00